📊 Raw Sensor Data
Showing records 49951 to 49975 of 85,127 total
| ID | Distance (ft) | Battery V | Battery A | Int Temp (°F) | Int Humid (%) | Ext Temp (°F) | Solar V | RSSI | SNR | Time Stamp |
|---|---|---|---|---|---|---|---|---|---|---|
| 35189 | 15.1 | 4.00 | -5 | 54 | 41 | 55 | 0.00 | -76 | 8 | 03/16/2025 10:30 PM |
| 35188 | 15.0 | 4.00 | -5 | 55 | 40 | 56 | 0.10 | -77 | 8 | 03/16/2025 10:15 PM |
| 35187 | 15.1 | 4.00 | -5 | 54 | 41 | 56 | 0.00 | -77 | 8 | 03/16/2025 10:00 PM |
| 35186 | 15.1 | 4.05 | -5 | 54 | 41 | 55 | 0.00 | -77 | 8 | 03/16/2025 09:45 PM |
| 35185 | 15.1 | 4.00 | -5 | 55 | 41 | 56 | 0.10 | -76 | 8 | 03/16/2025 09:30 PM |
| 35184 | 15.1 | 4.00 | -5 | 55 | 41 | 56 | 0.00 | -76 | 8 | 03/16/2025 09:15 PM |
| 35183 | 15.1 | 4.00 | -5 | 56 | 41 | 56 | 0.00 | -76 | 7 | 03/16/2025 09:00 PM |
| 35182 | 15.1 | 4.00 | -5 | 57 | 41 | 57 | 0.00 | -75 | 8 | 03/16/2025 08:45 PM |
| 35181 | 15.1 | 4.00 | -5 | 57 | 41 | 57 | 0.00 | -74 | 8 | 03/16/2025 08:30 PM |
| 35180 | 15.1 | 4.05 | -5 | 57 | 41 | 57 | 0.00 | -75 | 8 | 03/16/2025 08:15 PM |
| 35179 | 15.1 | 4.06 | -5 | 58 | 41 | 58 | 0.00 | -77 | 7 | 03/16/2025 08:00 PM |
| 35178 | 15.1 | 4.01 | -5 | 59 | 41 | 58 | 0.00 | -75 | 8 | 03/16/2025 07:45 PM |
| 35177 | 15.1 | 4.01 | -5 | 59 | 41 | 59 | 0.20 | -76 | 8 | 03/16/2025 07:30 PM |
| 35176 | 15.2 | 4.00 | -10 | 60 | 41 | 59 | 2.00 | -76 | 8 | 03/16/2025 07:15 PM |
| 35175 | 15.2 | 4.07 | 0 | 61 | 41 | 60 | 4.50 | -75 | 7 | 03/16/2025 07:00 PM |
| 35174 | 15.1 | 4.09 | -9 | 62 | 41 | 61 | 4.50 | -74 | 8 | 03/16/2025 06:45 PM |
| 35173 | -- | 4.06 | 12 | 62 | 41 | 61 | 4.50 | -75 | 8 | 03/16/2025 06:30 PM |
| 35172 | 15.1 | 4.08 | -12 | 62 | 41 | 61 | 4.50 | -75 | 8 | 03/16/2025 06:15 PM |
| 35171 | -- | 4.06 | 11 | 63 | 41 | 62 | 4.50 | -75 | 8 | 03/16/2025 06:00 PM |
| 35170 | -- | 4.05 | 0 | 65 | 40 | 63 | 5.10 | -75 | 8 | 03/16/2025 05:45 PM |
| 35169 | -- | 4.05 | 0 | 65 | 40 | 63 | 5.10 | -77 | 8 | 03/16/2025 05:30 PM |
| 35168 | -- | 4.05 | 0 | 66 | 39 | 64 | 5.10 | -77 | 8 | 03/16/2025 05:15 PM |
| 35167 | -- | 4.14 | 0 | 64 | 40 | 63 | 5.10 | -78 | 8 | 03/16/2025 05:00 PM |
| 35166 | -- | 4.05 | 0 | 64 | 40 | 62 | 5.10 | -76 | 8 | 03/16/2025 04:45 PM |
| 35165 | -- | 4.05 | 0 | 64 | 40 | 64 | 5.10 | -77 | 8 | 03/16/2025 04:30 PM |